User: anonymous   Login
Location: Muenchen
(48.1800°N, 11.5800°E)
Time: 16:15:17
(UTC+01:00)
Language:

Cosmos 2233 Rocket - Orbit

View from above orbital plane
View from above orbital plane
View from above satellite
View from above satellite

Ground track
Ground track

The orbit data is extracted from the following two-line orbital elements,

1 22488U 93008B   16040.57338943  .00000119  00000-0  10360-3 0  9991
2 22488  82.9408  85.7708 0025832 165.4323 302.8026 13.77687091156299
Epoch (UTC): 09 February 2016 13:45:40
Eccentricity: 0.0025832
inclination: 82.9408°
perigee height: 953 km
apogee height: 991 km
right ascension of ascending node: 85.7708°
argument of perigee: 165.4323°
revolutions per day: 13.77687091
mean anomaly at epoch: 302.8026°
orbit number at epoch: 15629

The dashed part of the orbit path shows where the satellite is in the earth's shadow,  

DLR